sat.trackr.live / text

‹ back to catalog

STARLINK-30376

NORAD 57782 · 2023-134M

PAYLOAD ACTIVE UNKNOWN

§ Identity

Operator
Country
US
Launch date
2023-09-04
Launch site
AFETR
Launch vehicle
Mass (kg)
RCS (m²)

Purposes: comms

External: N2YO · Heavens-Above · Gunter

§ Orbital elements

Epoch: 2026-09-20T04:10:43.645728Z

Period
94.27 min
Inclination
42.9983°
Eccentricity
0.0000774
Mean motion
15.27575514 rev/d
Perigee alt
482.5 km
Apogee alt
483.6 km
Semi-major
6,861.2 km
B*
8.7301e-6
RAAN
175.8912°
Arg perigee
278.3895°
Mean anomaly
81.6869°
Rev number
16,925

§ Raw data

STARLINK-303761 57782U 23134M   26263.17411627 -.00000022  00000+0  87301-5 0  99982 57782  42.9983 175.8912 0000774 278.3895  81.6869 15.27575514169252

JSON: /api/v1/satellites/57782 · /tle

For live sub-satellite position, see the globe view (requires WebGL).

§ Visibility from observer

Set your observer location to see the next 7 days of passes ≥ 10°. The values pass through the URL so the page stays shareable.

No JS? Fill the form by hand. The geolocation button needs JavaScript.